Location: Saluda
(35.2377°N, 82.3468°W)
Time: 15:26:45
(UTC+00:00)

SR - Pass Details

Date: 11 October 2022
Orbit: 577 x 875 km, 66.7° (Epoch: 28 November)

Event Time Altitude Azimuth Distance (km) Brightness Sun altitude
Rises 01:39:29 0° 255° (WSW) 3,446 ? -33.0°
Reaches altitude 10° 01:43:04 10° 277° (W) 2,524 ? -33.7°
Maximum altitude 01:46:28 16° 313° (NW) 2,147 ? -34.3°
Drops below altitude 10° 01:49:53 10° 349° (NNW) 2,512 ? -35.0°
Sets 01:53:28 0° 11° (N) 3,422 ? -35.7°
